User: anonymous   Login
Location: El Bakhil
(32.7726°N, 5.5387°W)
Time: 08:44:29
(UTC+00:00)
Language:

STRAND 1 - Orbit

View from above orbital plane
View from above orbital plane
View from above satellite
View from above satellite

Ground track
Ground track

The orbit data is extracted from the following two-line orbital elements,

1 39090U 13009E   22329.54011692  .00000202  00000-0  85265-4 0  9994
2 39090  98.3932 163.4241 0009560 145.6137 214.5669 14.35373450510526
Epoch (UTC): 25 November 2022 12:57:46
Eccentricity: 0.0009560
inclination: 98.3932°
perigee height: 767 km
apogee height: 780 km
right ascension of ascending node: 163.4241°
argument of perigee: 145.6137°
revolutions per day: 14.35373450
mean anomaly at epoch: 214.5669°
orbit number at epoch: 51052

The dashed part of the orbit path shows where the satellite is in the earth's shadow,  

DLR